{"data":{"norad_id":66632,"intl_designator":"2025-271R","name":"STARLINK-35973","alt_names":[],"object_type":"PAYLOAD","status":"ACTIVE","operator":null,"country":"US","launch_date":"2025-11-23","launch_site_code":"AFWTR","launch_vehicle":null,"mission":null,"orbit_class":"UNKNOWN","rcs_meters":null,"size_class":null,"mass_kg":null,"dimensions":null,"purposes":["comms"],"wikipedia_slug":null,"has_3d_model":false,"image_url":null,"decayed_at":null,"tle_current":{"epoch":"2026-09-20T04:02:00.776256Z","epoch_age_seconds":115584,"freshness":"FRESH","line1":"1 66632U 25271R   26263.16806454  .00013559  00000+0  41163-3 0  9993","line2":"2 66632  53.1587 311.5352 0001760 102.0810 258.0390 15.34406059 47364","mean_motion":15.34406059,"eccentricity":0.000176,"inclination_deg":53.1587,"raan_deg":311.5352,"arg_perigee_deg":102.081,"mean_anomaly_deg":258.039,"bstar":0.00041163,"rev_number":4736,"period_min":93.847387499139,"perigee_km":461.48124692872,"apogee_km":463.88921635426,"semimajor_km":6840.8222316415,"source":"CELESTRAK","updated_at":"2026-09-21T09:00:35.985014Z"}}}